Temperature
23 22 22 21 20 20 22 24 26 27 27 27 27 26 25 25 23 22 21 22 22 22 21 21 21 20 20 20 20 20 19 19 19 19 19 19 19 19 19 19 18 18 18 18 18 18 18 18 18
23 23 22 21 20 21 23 25 26 27 28 27 26 26 25 24 22 21 21 22 22 22 21 21 21 20 20 20 20 19 19 19 19 19 19 19 19 18 18 18 18 18 18 18 18 18 18 18 18
23 23 22 19 20 21 23 26 27 28 28 27 26 25 25 23 22 22 22 22 22 22 21 21 21 20 20 20 20 19 19 19 19 19 19 18 18 18 18 18 18 18 18 18 18 18 18 18 17
23 22 22 20 21 23 24 26 27 28 28 27 26 24 24 24 23 23 22 22 22 22 21 21 21 20 20 20 20 19 19 19 19 19 18 18 18 18 18 18 18 18 18 18 18 18 18 18 17
23 22 20 20 22 25 26 27 27 27 27 26 25 23 23 23 24 23 22 22 22 22 21 21 21 20 20 20 20 19 19 19 19 18 18 18 18 18 18 18 18 18 18 18 18 18 18 18 17
23 21 20 21 23 26 27 28 28 27 26 26 24 23 22 22 23 22 22 22 22 22 21 21 21 20 20 20 19 19 19 19 18 18 18 18 18 18 18 18 18 18 18 18 18 18 18 18 17
23 20 21 22 24 25 27 28 27 27 26 26 25 22 22 21 22 22 22 22 22 22 21 21 21 20 20 20 19 19 19 19 18 18 18 18 18 18 18 18 18 18 18 18 18 18 18 18 17
25 21 22 23 24 26 28 28 28 28 27 26 25 22 22 22 22 22 21 21 21 21 21 21 21 20 20 20 19 19 19 19 18 18 18 18 18 18 18 18 18 18 18 18 18 18 18 18 17
25 21 21 23 25 26 28 28 28 27 26 26 26 25 24 23 22 21 20 21 21 21 21 21 21 20 20 20 19 19 19 18 18 18 18 18 18 18 18 18 18 18 18 18 18 18 18 18 18
25 21 23 26 26 27 28 28 27 26 25 24 24 24 24 22 22 21 20 20 21 21 21 21 21 20 20 20 19 19 18 18 18 18 18 18 18 18 18 18 18 18 18 18 18 18 18 18 18
25 24 26 27 28 28 28 28 28 26 24 24 24 24 23 22 22 21 21 21 21 21 21 20 20 20 20 20 19 19 19 18 18 18 18 18 18 18 18 18 18 18 18 18 18 18 18 18 18
26 26 28 29 29 29 28 28 28 26 26 27 27 25 23 23 22 21 21 21 21 21 21 21 20 20 20 20 20 19 19 19 18 18 18 18 18 18 18 18 18 18 18 18 18 18 18 18 18
26 26 28 29 29 29 29 28 27 27 28 27 26 25 24 23 22 22 21 21 21 21 21 20 20 20 20 20 19 19 19 19 18 18 18 18 18 18 18 18 18 18 18 18 18 18 18 18 17
26 27 28 29 29 29 28 28 27 26 26 25 25 24 24 23 23 22 21 21 21 20 20 20 20 20 20 19 19 19 19 19 18 18 18 18 18 18 18 18 18 18 18 17 17 17 17 17 17
28 26 26 27 28 29 28 27 26 27 26 24 24 23 23 23 23 23 22 21 21 20 20 20 20 20 19 19 19 19 19 19 18 18 18 18 18 18 18 18 17 17 17 17 17 17 17 17 17
26 25 25 26 28 28 27 26 26 27 25 24 23 23 23 23 23 22 22 21 21 20 20 19 19 19 19 19 19 19 18 18 18 18 18 18 18 18 18 18 17 17 17 17 17 17 17 17 17
24 24 25 26 28 28 27 25 26 26 25 24 23 22 22 22 22 22 22 22 21 20 20 19 19 19 19 19 18 18 18 18 18 18 18 18 18 18 18 18 17 17 17 17 17 17 17 17 17
23 24 25 26 28 28 26 26 25 26 25 24 23 22 22 22 22 21 22 21 21 20 20 19 19 19 19 18 18 18 18 18 18 18 18 18 18 18 17 17 17 17 17 17 17 17 17 17 17
25 25 25 26 28 27 26 25 25 25 25 23 22 22 21 21 22 21 21 21 20 20 19 19 19 19 18 18 18 18 18 18 18 18 18 18 17 17 17 17 17 17 17 17 17 17 17 17 17
25 25 25 26 27 27 25 25 24 24 24 24 23 22 22 21 21 21 21 21 20 20 19 19 19 19 18 18 18 18 18 18 18 18 18 17 17 17 17 17 17 17 17 17 17 17 17 17 17
25 25 26 26 27 26 25 24 23 24 24 23 23 22 22 22 21 21 21 21 20 20 19 19 19 19 18 18 18 17 17 17 17 17 17 17 17 17 17 17 17 17 17 17 17 17 17 17 17
25 27 27 27 25 23 24 22 23 22 22 22 22 22 22 22 22 21 21 21 20 20 19 19 19 18 18 18 18 18 17 17 18 18 17 17 17 17 17 17 17 17 17 17 17 17 17 17 17
26 27 27 27 24 22 22 22 21 21 22 22 21 22 22 22 22 22 21 21 20 20 19 19 18 18 18 18 18 18 18 18 18 17 17 17 17 17 17 17 17 17 17 17 17 17 17 17 17
28 27 25 22 20 21 22 22 21 20 21 21 21 21 22 22 22 21 21 20 20 19 19 18 18 18 18 17 17 18 18 17 17 17 17 17 17 17 17 17 17 17 17 17 17 17 17 17 17
27 23 21 22 20 20 21 21 20 21 22 22 21 21 22 22 21 21 20 20 20 19 19 18 18 18 17 17 17 17 17 18 18 17 17 17 17 17 17 17 17 17 17 17 17 17 17 17 17
25 22 21 22 21 20 21 21 21 22 22 22 22 22 21 21 21 21 21 20 20 19 19 18 18 18 17 17 17 17 17 17 17 17 17 17 17 17 17 17 17 17 17 17 17 17 17 17 17
26 23 22 20 21 20 20 21 21 22 21 21 22 21 21 21 21 20 20 20 20 19 19 18 18 18 18 18 17 17 17 17 17 17 17 17 17 17 17 17 17 17 17 17 17 17 16 17 17
26 24 20 20 21 20 21 21 20 21 21 21 20 20 20 20 20 20 20 20 19 19 19 18 18 18 18 18 17 17 17 17 17 17 17 17 17 17 17 17 17 17 17 17 17 16 16 16 16
25 24 21 19 19 20 20 20 22 21 21 20 20 20 21 20 20 20 20 20 19 19 18 18 18 18 18 17 17 17 17 17 17 17 17 17 17 17 17 17 17 17 17 17 16 16 16 16 16
24 23 21 20 20 19 19 20 22 21 20 20 20 20 20 20 20 20 20 19 19 18 18 18 18 18 18 17 17 17 17 17 17 17 17 17 17 17 17 17 17 17 17 17 16 16 16 16 16
Wind_Speed
8 6 2 1 4 4 4 3 3 4 4 6 9 10 9 6 4 5 6 17 20 18 18 22 22 22 21 21 21 20 19 19 18 18 18 18 18 18 18 17 17 17 17 16 16 16 16 17 17
4 4 1 3 5 3 4 2 3 5 9 12 11 11 9 7 8 10 9 17 20 18 18 20 23 22 22 21 21 20 19 18 18 17 17 18 18 18 18 17 17 17 17 16 15 15 15 15 16
3 2 2 3 2 2 5 3 3 6 11 11 7 7 6 6 8 7 12 20 18 15 17 21 24 23 22 21 21 20 19 19 18 17 17 17 17 17 17 17 17 17 16 16 15 14 14 14 14
1 3 3 3 3 6 7 8 3 6 8 9 9 6 3 4 6 12 20 20 18 14 16 22 24 23 22 21 21 20 19 19 18 17 17 17 17 17 17 17 17 16 16 15 14 13 13 12 12
2 3 3 2 5 7 8 9 5 5 6 8 11 7 3 4 17 22 20 19 18 14 14 21 23 23 22 21 21 20 19 19 18 18 17 17 17 17 17 17 16 16 15 14 13 12 11 11 10
2 3 2 3 6 7 7 6 3 7 11 11 11 8 3 9 18 19 19 17 17 16 14 20 23 23 22 21 21 20 19 19 19 18 18 17 17 17 17 16 16 15 14 13 11 10 9 9 8
3 2 3 4 5 6 5 2 4 8 11 9 11 7 5 9 15 17 16 17 15 14 13 13 19 21 22 21 21 20 19 19 19 19 18 17 17 16 16 15 15 14 13 11 10 9 7 7 7
5 2 2 3 4 5 3 3 5 8 8 10 9 10 9 12 16 17 16 15 14 13 12 10 13 16 17 18 20 20 19 19 18 18 18 17 17 16 15 14 14 13 11 10 8 7 6 5 5
3 1 5 5 4 4 4 2 3 5 8 4 4 7 13 20 20 18 15 13 13 14 11 10 10 12 14 16 19 19 19 18 18 17 18 16 14 14 13 13 13 12 10 9 7 6 5 3 3
5 4 9 8 6 5 5 4 5 5 8 5 6 8 16 20 21 20 19 18 17 17 14 12 12 11 13 14 15 14 14 15 13 13 14 13 12 12 12 13 12 11 9 8 6 5 3 2 2
6 8 10 11 11 7 5 3 5 10 5 8 13 16 17 17 18 18 18 18 18 18 16 14 13 12 10 8 11 10 11 12 11 12 13 12 11 9 9 8 8 8 7 4 3 3 1 1 1
6 11 11 11 9 4 5 4 4 6 9 14 18 20 18 17 17 17 18 17 17 17 16 16 14 12 9 10 9 8 8 8 8 11 13 10 7 6 7 6 6 5 4 3 3 2 1 1 2
8 11 12 12 9 5 3 4 5 4 9 14 17 17 18 17 15 13 14 16 17 17 16 17 15 14 11 9 8 9 8 8 10 11 12 12 7 5 5 5 5 5 5 4 3 2 1 1 2
8 9 11 10 7 4 3 2 4 6 13 15 16 14 14 14 13 11 14 15 17 17 17 16 16 14 13 11 8 8 9 10 10 10 12 13 12 8 6 4 4 5 5 5 4 3 2 2 2
6 8 11 8 5 3 2 2 3 8 14 14 14 12 9 9 10 13 16 16 16 16 16 16 16 15 15 12 10 8 9 11 9 10 13 14 14 11 8 4 4 5 6 5 3 3 3 2 2
7 5 6 9 4 5 3 5 6 7 13 14 13 12 9 9 10 11 13 13 13 14 15 16 16 15 14 11 8 7 8 9 8 11 12 13 14 13 9 5 4 6 6 4 3 2 2 2 2
4 3 6 9 6 3 3 4 4 7 12 12 13 12 12 11 10 10 13 14 14 14 15 15 13 14 13 10 7 6 7 7 8 10 10 11 13 13 9 5 5 7 4 2 3 2 2 2 2
6 5 7 9 7 2 1 3 4 6 10 12 12 12 12 12 13 12 12 13 12 13 14 14 13 13 12 9 6 5 6 6 6 7 9 11 11 12 9 6 5 6 4 3 3 3 2 2 2
8 10 13 13 8 1 2 4 6 6 6 9 9 10 10 10 10 11 12 12 11 11 13 13 13 12 11 8 7 6 6 7 6 5 9 11 11 11 8 5 5 4 5 4 4 3 2 1 2
12 12 12 10 5 1 3 3 3 4 5 8 11 11 11 9 8 10 11 12 12 12 12 12 13 13 12 10 8 5 5 5 6 5 7 10 10 11 9 6 5 5 4 4 4 3 2 1 2
13 10 9 7 3 4 3 2 2 1 2 5 7 8 10 13 14 13 13 12 12 12 13 13 12 12 11 10 7 6 4 4 4 5 6 7 10 10 9 8 6 5 5 5 4 4 4 2 1
12 12 8 4 1 3 1 1 4 2 1 3 6 8 8 10 11 11 12 12 12 11 10 11 12 12 11 11 11 11 8 7 6 6 6 6 8 9 10 9 7 6 5 5 5 4 4 4 2
11 11 6 1 2 2 5 2 6 3 1 3 4 6 8 9 11 12 12 12 10 10 10 9 10 11 11 12 12 11 8 6 5 6 7 7 6 7 9 9 7 6 5 5 5 4 4 3 3
8 3 6 6 6 3 4 1 5 4 5 4 2 3 6 9 9 10 10 9 8 9 9 9 10 10 11 12 12 12 11 10 9 8 9 8 5 5 7 7 6 6 5 5 5 5 5 4 3
2 4 4 5 5 4 4 1 6 7 4 4 4 4 5 8 9 10 11 11 10 10 10 10 11 10 11 12 12 12 12 12 12 10 10 9 6 5 7 7 6 5 5 6 5 5 4 5 4
5 10 8 5 5 4 3 3 6 5 2 3 4 5 6 7 7 10 11 11 11 11 10 10 11 10 11 12 12 11 11 9 8 9 9 9 8 7 8 8 7 6 6 6 5 4 3 4 4
6 6 10 8 3 1 3 4 6 2 2 3 3 5 6 7 7 8 8 9 9 10 10 11 11 10 10 11 11 11 11 10 10 9 8 7 7 7 9 9 8 7 6 6 6 4 4 4 4
8 7 7 6 4 2 2 3 4 4 4 2 2 3 4 6 7 7 7 7 8 8 7 8 9 10 9 10 10 10 10 10 10 9 9 9 8 8 9 8 8 7 7 7 6 4 4 5 4
2 3 5 5 6 6 3 5 6 9 9 8 7 6 8 8 8 7 6 6 6 7 7 7 7 7 8 9 9 8 9 9 9 9 9 9 8 8 9 8 8 8 7 7 6 6 6 6 5
5 4 6 5 3 5 5 6 5 6 6 7 6 6 6 7 7 6 6 6 5 5 6 6 7 7 7 8 8 8 8 8 8 8 8 8 8 8 8 8 8 8 7 7 7 7 6 7 7
Wind_Direction
200 202 187 45 46 29 304 268 140 102 80 78 88 94 93 87 132 144 132 138 137 142 147 145 142 139 137 134 130 127 125 122 119 117 116 115 115 115 115 116 115 114 114 113 112 111 110 110 110
197 202 142 45 64 6 299 258 138 128 122 108 90 86 77 65 90 109 122 138 138 140 143 144 142 141 139 137 134 133 130 128 125 122 121 119 118 118 118 118 117 116 115 114 113 112 112 111 112
218 194 87 66 83 214 274 268 172 129 120 109 92 68 76 105 110 120 138 137 134 137 140 145 144 143 141 139 137 136 135 132 129 127 124 123 122 121 120 120 119 118 117 116 115 113 113 112 112
156 64 53 63 267 247 244 255 222 123 109 102 103 77 65 119 124 132 137 138 135 136 140 146 145 144 143 142 141 140 138 136 134 132 129 127 125 123 123 123 121 120 118 117 116 114 113 111 111
91 84 55 325 268 264 257 250 234 142 123 106 104 103 53 63 118 131 139 139 136 138 142 146 146 146 145 145 144 142 141 139 138 135 132 130 128 127 125 125 124 123 122 121 120 118 116 113 110
58 80 88 266 267 277 271 250 165 126 115 113 111 111 81 121 127 136 139 138 140 144 143 147 148 148 148 147 146 145 143 141 140 138 135 133 132 130 129 128 128 128 128 126 125 124 122 117 109
145 134 204 239 278 281 271 228 153 136 133 138 129 111 122 137 138 138 138 137 141 145 143 146 150 151 151 150 149 148 146 144 142 141 139 138 136 134 133 133 133 133 133 133 132 130 126 117 104
169 126 256 250 258 275 258 156 148 142 129 133 132 137 160 161 144 137 136 138 142 144 146 145 147 149 150 151 152 151 150 148 146 145 144 144 142 140 139 139 139 139 140 140 140 137 132 123 111
166 118 246 237 226 257 229 135 100 95 107 115 136 152 156 148 140 137 137 139 146 150 152 151 149 148 149 151 155 154 153 153 151 150 149 146 142 142 144 147 148 148 149 148 147 146 142 130 113
153 194 238 224 228 230 244 179 146 113 100 87 85 110 138 145 147 149 153 157 160 161 163 163 158 155 156 158 150 151 152 153 152 153 147 145 148 152 153 158 157 156 156 154 157 157 145 112 93
190 218 253 262 251 224 229 205 153 135 140 166 154 152 152 151 154 158 163 166 167 166 166 166 164 163 163 151 150 151 149 152 155 157 154 154 156 159 155 158 159 159 160 160 169 162 150 124 133
242 259 261 268 265 228 214 177 129 148 183 172 159 156 157 161 167 168 167 169 167 168 169 167 167 166 163 153 157 155 154 160 164 169 166 159 153 153 156 160 167 168 167 171 174 170 184 199 160
256 267 274 271 270 251 222 186 147 156 152 150 151 154 162 170 174 171 165 164 167 170 170 170 168 167 162 157 163 164 165 171 173 175 176 168 157 157 159 164 170 177 174 170 166 178 179 167 131
261 284 294 284 269 257 219 241 133 172 149 149 151 158 166 173 175 168 164 167 172 172 171 170 169 166 162 165 169 165 171 173 172 174 177 170 163 160 158 158 168 182 184 177 170 160 138 127 119
304 313 309 295 278 253 102 318 201 171 148 147 149 154 165 184 182 180 174 171 172 170 169 170 169 165 165 168 172 166 171 169 169 173 173 167 162 161 159 155 169 187 184 171 149 128 106 99 107
342 331 306 297 291 262 119 249 252 165 146 150 152 154 168 204 197 187 169 164 170 167 168 171 173 166 165 165 165 158 164 162 167 169 168 165 163 162 158 158 173 178 169 154 138 123 104 94 108
351 302 285 293 287 271 147 211 228 170 153 154 159 162 178 194 199 186 170 166 168 168 166 168 167 164 164 162 155 147 151 157 164 163 162 164 163 161 158 162 170 166 148 140 153 119 127 131 128
257 278 286 280 287 260 196 204 199 184 158 163 168 169 176 188 193 182 170 165 163 162 162 166 162 162 158 151 143 136 143 157 162 161 163 163 162 160 156 159 162 156 136 138 132 122 115 141 156
256 275 277 277 278 234 179 200 208 193 168 159 166 172 178 188 179 167 164 163 159 158 161 165 163 162 159 158 160 157 164 169 167 170 164 165 162 160 157 154 153 147 148 157 145 132 121 119 118
260 269 274 280 285 187 180 219 215 176 174 168 165 171 171 171 166 165 162 162 165 166 165 166 169 167 167 168 164 162 160 166 163 164 164 171 165 162 165 154 159 155 146 146 145 135 128 129 127
265 253 253 259 320 33 99 359 325 327 115 142 152 164 169 172 173 171 168 170 167 170 171 172 171 171 170 162 150 144 135 132 147 158 170 175 169 167 165 163 156 157 152 159 162 151 145 152 134
262 260 255 265 27 328 85 212 285 270 344 145 152 157 174 177 172 172 171 171 174 175 171 169 172 173 170 162 161 163 168 170 178 168 170 171 170 166 165 162 159 159 158 163 172 160 155 146 151
240 257 256 240 112 41 11 96 285 329 287 228 194 169 170 172 172 172 172 172 173 168 167 168 169 173 172 172 173 170 171 174 166 159 165 172 171 166 164 164 159 163 165 168 168 153 149 148 153
243 304 18 46 70 27 288 160 277 264 238 250 209 171 168 165 163 162 161 156 160 164 165 168 170 176 177 178 178 176 175 172 169 174 174 175 172 173 171 165 163 166 165 167 169 157 149 152 150
221 93 29 358 11 264 271 210 248 261 238 200 196 181 173 161 158 158 156 160 164 169 173 176 179 181 182 183 183 182 181 177 180 180 178 174 173 179 184 176 170 169 170 167 162 153 157 162 160
203 144 158 192 217 261 318 251 269 270 227 157 155 151 150 157 163 168 169 170 172 175 178 180 184 183 181 182 183 181 181 182 186 182 179 181 183 185 181 177 175 174 170 169 160 156 171 171 175
178 182 173 147 160 126 291 298 309 332 38 69 114 132 152 162 168 173 173 170 171 177 182 184 184 183 183 182 179 181 183 184 184 183 183 182 182 183 178 177 176 177 172 170 164 174 188 178 184
170 160 102 119 152 196 278 271 252 235 217 187 161 156 169 156 160 164 167 166 167 170 177 181 185 187 183 178 180 184 182 184 183 179 181 183 184 181 175 177 179 179 178 177 172 178 186 180 194
89 97 110 125 147 151 197 258 232 209 192 180 184 174 163 154 158 163 166 164 163 164 167 173 178 178 179 176 173 175 177 179 180 184 184 182 181 176 178 179 180 182 184 182 181 191 188 192 206
132 146 132 141 199 156 160 256 265 195 178 164 159 151 139 144 150 149 143 137 139 150 162 166 170 169 170 166 164 171 172 173 178 184 181 176 176 176 177 178 181 189 189 187 190 201 201 199 207
Height
1506 1505 1505 1505 1506 1513 1513 1499 1488 1486 1486 1485 1486 1488 1491 1495 1500 1508 1505 1507 1511 1514 1518 1522 1524 1526 1527 1529 1530 1532 1533 1535 1536 1537 1538 1539 1540 1542 1543 1543 1544 1545 1546 1547 1548 1549 1550 1551 1552
1506 1505 1506 1505 1513 1525 1514 1494 1488 1485 1485 1487 1489 1490 1492 1497 1498 1500 1503 1509 1512 1515 1518 1522 1524 1526 1528 1530 1531 1533 1534 1536 1537 1538 1539 1541 1542 1543 1544 1545 1546 1547 1548 1549 1550 1551 1552 1553 1554
1506 1506 1507 1509 1517 1522 1511 1492 1487 1485 1485 1486 1491 1493 1496 1499 1500 1501 1504 1509 1513 1516 1519 1522 1525 1527 1529 1530 1532 1533 1535 1536 1538 1539 1541 1542 1543 1544 1545 1546 1547 1548 1550 1551 1552 1553 1554 1555 1556
1507 1508 1509 1515 1517 1507 1500 1491 1485 1485 1486 1486 1490 1495 1498 1500 1500 1502 1506 1510 1513 1517 1520 1523 1525 1527 1529 1531 1533 1534 1536 1537 1539 1540 1542 1543 1544 1546 1547 1548 1549 1550 1551 1553 1554 1555 1556 1557 1558
1507 1508 1514 1519 1512 1498 1489 1486 1486 1485 1486 1488 1489 1496 1500 1501 1501 1503 1507 1511 1514 1517 1520 1523 1526 1528 1530 1532 1533 1535 1537 1538 1540 1541 1543 1545 1546 1547 1548 1550 1551 1552 1553 1555 1556 1557 1558 1559 1560
1507 1508 1520 1522 1508 1493 1486 1483 1484 1484 1487 1490 1491 1496 1503 1503 1503 1505 1509 1512 1515 1517 1520 1523 1526 1528 1530 1532 1534 1536 1538 1539 1541 1542 1544 1546 1547 1548 1550 1551 1552 1554 1555 1556 1558 1559 1560 1561 1562
1507 1510 1516 1512 1504 1494 1484 1482 1483 1484 1486 1488 1490 1496 1503 1505 1505 1507 1510 1513 1516 1518 1520 1523 1525 1528 1530 1532 1534 1536 1538 1540 1541 1543 1545 1546 1548 1550 1551 1552 1554 1555 1556 1558 1559 1560 1562 1563 1564
1503 1507 1510 1508 1502 1494 1483 1481 1483 1483 1484 1487 1488 1492 1499 1502 1504 1507 1510 1513 1516 1518 1520 1522 1525 1527 1530 1532 1534 1536 1539 1541 1542 1544 1546 1547 1549 1551 1552 1554 1555 1556 1558 1559 1560 1562 1563 1564 1566
1501 1509 1512 1504 1497 1490 1482 1481 1483 1483 1483 1486 1487 1487 1491 1498 1502 1506 1509 1513 1515 1518 1520 1522 1524 1527 1529 1532 1534 1536 1539 1541 1543 1545 1546 1548 1550 1552 1553 1555 1556 1558 1559 1560 1562 1563 1564 1566 1567
1497 1508 1499 1488 1485 1483 1480 1479 1481 1483 1483 1486 1487 1490 1493 1497 1500 1503 1506 1509 1512 1515 1518 1521 1523 1526 1528 1531 1533 1536 1538 1541 1543 1545 1547 1548 1550 1552 1554 1556 1557 1559 1560 1561 1563 1564 1565 1567 1568
1492 1494 1486 1481 1480 1479 1478 1478 1478 1480 1485 1483 1484 1488 1493 1497 1499 1502 1504 1507 1510 1513 1516 1519 1522 1524 1527 1530 1532 1535 1538 1541 1543 1545 1547 1549 1551 1553 1555 1557 1558 1559 1561 1562 1563 1565 1566 1567 1568
1489 1484 1481 1477 1476 1476 1475 1475 1476 1476 1477 1478 1481 1484 1490 1495 1497 1499 1502 1505 1508 1511 1514 1517 1520 1523 1526 1529 1532 1534 1537 1540 1542 1545 1547 1549 1551 1553 1555 1557 1559 1560 1561 1563 1564 1565 1567 1568 1568
1485 1481 1477 1474 1473 1471 1472 1472 1472 1474 1475 1478 1481 1484 1488 1492 1495 1498 1500 1503 1506 1509 1512 1515 1518 1521 1524 1527 1531 1534 1536 1540 1542 1545 1547 1549 1551 1553 1555 1557 1559 1560 1562 1563 1564 1565 1567 1568 1569
1481 1478 1474 1471 1470 1469 1470 1471 1472 1473 1474 1478 1480 1484 1487 1491 1494 1498 1499 1501 1503 1506 1509 1513 1516 1519 1522 1526 1529 1532 1535 1539 1541 1544 1546 1548 1551 1553 1555 1557 1559 1560 1562 1563 1564 1566 1567 1568 1569
1479 1478 1474 1468 1467 1467 1469 1475 1471 1471 1474 1478 1481 1485 1488 1490 1493 1494 1496 1498 1500 1503 1507 1511 1514 1517 1520 1524 1527 1531 1534 1537 1540 1543 1546 1548 1550 1552 1555 1557 1558 1560 1561 1563 1564 1566 1567 1568 1569
1479 1483 1486 1471 1465 1465 1473 1484 1472 1471 1474 1478 1481 1483 1486 1489 1491 1493 1495 1496 1499 1502 1504 1508 1512 1515 1519 1523 1526 1529 1533 1536 1539 1542 1545 1547 1549 1552 1554 1556 1558 1559 1561 1562 1564 1565 1567 1568 1569
1489 1494 1489 1477 1463 1464 1470 1478 1471 1471 1473 1476 1479 1481 1483 1485 1489 1491 1493 1494 1496 1499 1502 1505 1509 1513 1517 1521 1524 1528 1531 1534 1538 1541 1544 1546 1549 1551 1553 1555 1557 1559 1560 1562 1563 1565 1566 1568 1569
1498 1494 1488 1481 1466 1463 1469 1472 1469 1470 1471 1474 1477 1479 1481 1482 1485 1488 1490 1492 1494 1497 1499 1502 1506 1510 1514 1519 1523 1526 1530 1533 1537 1540 1542 1545 1547 1549 1552 1554 1556 1558 1559 1561 1563 1564 1566 1567 1568
1485 1488 1488 1476 1463 1465 1469 1471 1469 1469 1470 1473 1476 1477 1479 1480 1483 1486 1489 1491 1493 1495 1498 1501 1504 1508 1511 1515 1519 1523 1527 1531 1534 1538 1541 1543 1546 1548 1551 1553 1555 1556 1558 1560 1562 1563 1565 1566 1567
1481 1486 1483 1472 1462 1465 1471 1473 1469 1468 1469 1470 1472 1474 1476 1479 1482 1484 1486 1488 1490 1492 1495 1499 1501 1505 1508 1513 1517 1521 1525 1529 1533 1536 1539 1542 1545 1547 1549 1551 1553 1555 1557 1559 1561 1562 1563 1565 1566
1478 1481 1477 1473 1465 1466 1472 1481 1476 1471 1469 1470 1471 1472 1475 1476 1479 1481 1484 1486 1489 1491 1494 1497 1499 1502 1506 1511 1515 1519 1524 1527 1530 1534 1537 1540 1543 1545 1548 1550 1552 1554 1556 1558 1559 1561 1562 1563 1565
1480 1465 1464 1466 1475 1487 1480 1498 1483 1475 1472 1470 1470 1471 1474 1476 1478 1480 1482 1485 1487 1490 1492 1495 1498 1501 1503 1507 1511 1515 1519 1522 1526 1531 1535 1538 1541 1544 1546 1549 1551 1553 1554 1556 1558 1560 1561 1562 1563
1466 1457 1460 1464 1475 1489 1487 1496 1491 1478 1477 1473 1471 1470 1472 1474 1476 1479 1481 1483 1486 1488 1491 1493 1496 1498 1501 1504 1509 1513 1517 1521 1525 1530 1533 1536 1539 1542 1545 1547 1549 1551 1553 1555 1556 1558 1559 1561 1562
1454 1458 1465 1474 1486 1503 1494 1497 1497 1484 1476 1471 1469 1470 1471 1473 1475 1478 1480 1483 1485 1488 1490 1492 1493 1495 1498 1501 1505 1510 1514 1518 1522 1526 1530 1533 1537 1540 1542 1545 1547 1549 1551 1553 1555 1556 1558 1559 1561
1455 1476 1499 1501 1511 1509 1492 1493 1492 1473 1466 1466 1468 1469 1471 1473 1475 1477 1479 1481 1484 1486 1488 1490 1492 1493 1496 1498 1502 1507 1511 1515 1519 1523 1527 1531 1534 1537 1540 1543 1545 1547 1549 1551 1553 1555 1556 1558 1559
1457 1472 1499 1510 1513 1507 1493 1494 1482 1467 1462 1462 1464 1467 1471 1474 1475 1477 1478 1480 1482 1484 1486 1487 1489 1491 1493 1496 1500 1504 1509 1513 1517 1521 1525 1529 1532 1535 1538 1540 1543 1545 1547 1549 1551 1552 1554 1556 1557
1455 1465 1468 1489 1497 1507 1501 1489 1476 1465 1463 1463 1464 1467 1470 1472 1474 1477 1478 1479 1481 1482 1484 1485 1487 1489 1491 1494 1498 1502 1506 1510 1514 1519 1523 1527 1530 1533 1535 1538 1541 1543 1545 1547 1548 1550 1552 1553 1555
1443 1452 1473 1488 1504 1512 1504 1496 1489 1472 1469 1467 1467 1468 1470 1470 1474 1476 1478 1479 1480 1481 1483 1485 1486 1488 1490 1493 1496 1500 1504 1508 1512 1516 1520 1524 1527 1530 1533 1535 1538 1540 1542 1544 1546 1547 1549 1551 1552
1450 1457 1468 1483 1489 1505 1511 1499 1467 1464 1463 1464 1466 1468 1469 1470 1472 1475 1477 1478 1479 1481 1482 1484 1485 1486 1489 1491 1494 1498 1501 1506 1510 1514 1518 1521 1524 1527 1530 1533 1535 1538 1540 1542 1544 1545 1546 1548 1549
1446 1455 1466 1484 1488 1491 1499 1493 1460 1459 1460 1462 1465 1468 1470 1472 1473 1474 1476 1477 1479 1480 1481 1483 1484 1486 1488 1490 1493 1496 1499 1504 1507 1511 1514 1518 1521 1524 1527 1530 1532 1535 1537 1539 1541 1542 1544 1545 1546